Location: Peterborough
(44.3091°N, 78.3197°W)
Time: 17:25:10
(UTC-04:00)

Transit 2A Rocket - Pass Details

Date: 30 March 2023
Orbit: 584 x 914 km, 66.7° (Epoch: 04 June)

Event Time Altitude Azimuth Distance (km) Brightness Sun altitude
Rises 12:26:58 0° 240° (WSW) 3,297 8.4 48.0°
Reaches altitude 10° 12:29:32 10° 250° (WSW) 2,420 7.7 48.2°
Maximum altitude 12:34:38 34° 315° (NW) 1,388 6.4 48.4°
Drops below altitude 10° 12:40:05 10° 19° (NNE) 2,580 7.5 48.7°
Sets 12:42:55 0° 29° (NNE) 3,545 8.1 48.8°
